Regional Weather Roundup
Issued by NWS

Home | Current Version | Previous Version | Text Only | Print | Product List | Glossary On
Versions: 1 2 3 4 5 6 7 8 9 10 11 12 13 14 15 16 17 18 19 20 21 22 23 24 25 26 27 28 29 30 31 32 33 34 35 36 37 38 39 40 41 42 43 44 45 46 47 48 49 50
000
ASCA44 KEWX 250520
RWRMX

LATIN AMERICA AND CARIBBEAN REGIONAL WEATHER ROUNDUP
NATIONAL WEATHER SERVICE AUSTIN/SAN ANTONIO TX
1100 PM CST WED DEC 24 2014

NOTE: "FAIR" INDICATED FEW OR NO CLOUDS BELOW 12,000 FEET WITH NO
SIGNIFICANT WEATHER AND/OR OBSTRUCTIONS TO VISIBILITY.

BAJA CALIFORNIA

CITY           SKY/WX    TMP DP  RH WIND       PRES   REMARKS
LA PAZ         CLEAR     63  50  63 N6        29.95R
MEXICALI       MOCLDY    54  45  71 SE8       29.80F
S.J. DEL CABO  CLEAR     66  54  63 W7        29.94R
TIJUANA        PTCLDY    61  30  31 SE7       29.90F

NORTHWESTERN MEXICO

CITY           SKY/WX    TMP DP  RH WIND       PRES   REMARKS
CULIACAN       CLEAR     66  61  82 CALM      29.87R
LOS MOCHIS     CLEAR     59  48  67 NW6       29.91R

NORTHEASTERN MEXICO

CITY           SKY/WX    TMP DP  RH WIND       PRES   REMARKS
MONTERREY      CLEAR     46  30  53 S6        30.17R WCI  43
REYNOSA        CLEAR     43  32  65 VRB2      30.20R

WESTERN MEXICO

CITY           SKY/WX    TMP DP  RH WIND       PRES   REMARKS
AGUASCALIENTES CLEAR     41  14  33 NE10      30.21F WCI  35
DEL BAJIO      MOCLDY    54  32  43 NE10      30.24F
GUADALAJARA    CLEAR     48  41  76 SW3       30.12S
MAZATLAN       CLEAR     55  52  88 NE8       29.87R
P. VALLARTA    PTCLDY    68  63  83 N5        29.89F
ZACATECAS      CLEAR     28  10  47 SW6       30.23F WCI  22

CENTRAL MEXICO

CITY           SKY/WX    TMP DP  RH WIND       PRES   REMARKS
MORELIA        CLOUDY    54  48  82 CALM      30.16F
QUERETARO      MOCLDY    48  41  76 E8        30.28R WCI  45
S. LUIS POTOSI PTCLDY    36  30  80 CALM      30.22F
TAMPICO        CLOUDY    55  41  58 SW9       30.26F
TOLUCA         LGT RAIN  41  36  81 W5        30.37R WCI  38

SOUTHERN MEXICO

CITY           SKY/WX    TMP DP  RH WIND       PRES   REMARKS
ACAPULCO       LGT RAIN  75  72  88 E14       29.91R
OAXACA         CLOUDY    54  50  87 W2        30.26R
VERACRUZ       CLOUDY    61  52  72 NW5       30.24R

YUCATAN PENINSULA

CITY           SKY/WX    TMP DP  RH WIND       PRES   REMARKS
CANCUN         CLOUDY    73  70  88 NW10      30.04R
COZUMEL        PTCLDY    70  68  94 N16       30.04S
MERIDA         MOCLDY    70  59  68 N6        30.10S
TAPACHULA      MOCLDY    79  73  83 CALM      29.90S
TUX. GUTIERREZ MOCLDY    66  55  68 NW15G26   30.09S

CENTRAL AMERICA

CITY           SKY/WX    TMP DP  RH WIND       PRES   REMARKS
MANAGUA        PTCLDY    81  72  74 SE7       29.86S

CARIBBEAN

CITY           SKY/WX    TMP DP  RH WIND       PRES   REMARKS
ARUBA          PTCLDY    81  72  74 E12       29.92S
CURACAO        PTCLDY    81  72  74 E12       29.94S
KINGSTON       PTCLDY    82  73  74 E8        30.00S
NASSAU         PTCLDY    75  73  94 S9        30.04F
SAN JUAN       MOCLDY    77  72  83 NE14      30.05F
SANTO DOMINGO  PTCLDY    75  72  88 N6        30.06S

$$



USA.gov is the U.S. government's official web portal to all federal, state and local government web resources and services.